Terminal Aerodrome Forecast
Issued by NWS

Home | Current Version | Previous Version | Text Only | Print | Product List | Glossary On
Versions: 1 2 3 4 5 6 7 8 9 10 11 12 13
000
FTUS42 TJSJ 040525
TAFIST
TAF
TIST 040525Z 0406/0506 09005KT P6SM FEW025
     FM041330 14008KT P6SM SCT025
     FM042200 09007KT P6SM FEW025=

USA.gov is the U.S. government's official web portal to all federal, state and local government web resources and services.